Theta_e
324 324 325 326 326 327 326 326 325 324 322 321 320 319 319 320 321 322 322 322 323 323 324 325 326 327 327 328 328 329 329 329 328 326 325 324 323 322 321 321 321 320 320 319 318 317 316 314 312 311 309 308 307 307 306 306 305 304 303 302 301 301 300 299 298 297 296 296 296 295 294 294 293 293 293 293 293 293 293 293 292 292 292 292 292 292
324 324 325 326 326 326 326 325 323 321 320 319 319 319 320 320 321 322 322 322 323 323 323 324 325 325 326 327 328 328 329 328 327 326 325 324 322 321 321 320 320 319 319 318 317 315 314 312 311 309 308 307 306 305 305 304 304 303 302 301 301 300 299 298 297 296 296 296 296 295 294 293 293 293 293 293 293 293 293 293 292 292 292 292 292 292
323 324 324 325 325 325 324 322 321 319 318 318 318 319 319 320 321 321 322 322 322 323 323 323 324 325 326 327 327 328 328 328 327 326 324 323 322 321 320 320 319 318 317 316 315 314 312 311 309 308 306 305 305 304 304 303 303 302 302 301 300 299 299 298 297 296 295 295 295 294 293 293 292 292 292 292 292 293 293 293 292 292 292 292 292 292
323 323 323 323 323 323 322 321 319 318 318 318 318 318 319 319 320 320 321 321 322 322 323 323 324 325 326 326 326 326 326 326 325 325 323 322 321 321 320 320 318 317 316 315 314 313 311 310 308 307 306 305 304 303 303 303 302 302 301 300 299 299 298 297 297 296 295 295 294 293 293 293 292 292 292 292 292 292 292 292 292 292 292 292 292 292
322 323 323 323 322 322 321 320 319 319 318 318 318 318 318 319 319 319 320 321 321 322 322 323 324 325 326 326 325 324 324 324 324 323 322 321 321 320 319 318 317 317 316 315 314 314 312 310 309 307 306 304 304 303 303 303 302 301 300 300 299 299 298 298 297 296 295 294 293 293 293 293 292 292 292 292 292 292 292 292 292 292 292 292 292 291
322 322 322 322 322 321 320 320 319 319 319 319 319 319 318 318 319 319 320 320 321 322 323 323 324 325 326 326 324 323 322 323 323 322 321 320 318 317 317 316 316 316 316 315 315 314 313 312 310 308 307 305 305 304 304 303 302 301 301 300 299 298 298 298 297 296 295 294 293 293 293 293 293 292 292 292 292 292 292 292 292 292 292 292 292 291
321 320 320 320 321 320 320 320 320 319 319 320 319 319 319 319 319 319 319 320 321 322 323 324 324 325 325 325 324 323 322 322 321 320 319 317 316 316 316 316 316 316 316 316 315 315 314 313 312 310 309 308 307 307 306 305 303 303 302 301 299 298 298 297 297 295 294 293 293 293 293 293 293 292 292 292 292 292 292 292 292 292 292 292 292 291
320 319 319 319 319 320 320 320 320 320 320 320 320 320 319 319 319 319 319 320 321 321 322 324 324 324 324 324 324 323 322 321 320 319 317 316 316 316 316 316 316 316 316 316 316 315 315 314 314 313 312 311 311 310 309 308 307 306 305 302 300 299 298 298 297 295 294 293 293 293 293 293 293 292 292 292 292 292 292 292 292 292 292 292 291 291
320 319 319 319 319 319 320 320 320 320 320 320 320 319 319 319 319 319 319 320 320 321 322 323 324 324 323 323 323 322 321 320 319 318 316 316 316 316 316 316 316 316 316 315 315 315 315 315 315 314 314 314 313 313 312 310 310 309 307 304 302 300 300 300 298 296 294 293 293 293 293 293 292 292 292 292 292 292 292 291 291 292 292 291 291 291
320 320 319 319 319 319 320 320 320 319 319 318 318 318 318 319 319 319 319 320 320 321 322 323 323 323 322 322 322 322 321 320 318 317 316 316 316 316 316 316 315 314 314 314 314 314 314 314 314 314 314 314 314 313 313 312 311 311 309 306 304 302 303 302 300 297 294 293 292 293 293 293 292 292 292 292 292 291 291 291 291 291 291 291 291 291
319 319 319 319 319 318 319 319 319 318 317 316 316 316 316 317 318 319 320 320 320 320 321 322 322 322 322 322 321 321 320 319 318 316 316 316 316 316 315 315 314 314 313 313 313 313 313 314 314 314 314 314 314 313 313 312 312 311 310 307 305 304 304 304 302 299 295 293 292 292 293 293 292 292 292 291 291 291 291 291 291 291 291 291 291 291
318 318 318 318 318 317 317 317 316 316 315 314 313 313 314 315 317 318 319 320 320 320 320 320 321 321 321 321 320 319 318 317 317 316 316 315 315 315 314 314 313 313 312 312 312 312 312 313 313 313 313 313 312 312 312 312 312 311 310 307 306 305 305 304 302 299 295 293 292 292 292 292 292 292 291 291 291 291 291 291 291 291 291 291 291 291
318 317 317 317 317 316 316 315 314 313 312 312 312 312 313 314 315 316 317 318 318 318 318 317 317 317 318 319 318 318 317 316 316 315 315 315 314 314 313 313 313 312 312 312 312 312 312 312 312 312 312 312 311 311 311 311 311 311 310 308 307 306 305 304 302 299 295 292 291 291 292 292 292 292 291 291 291 291 291 291 291 291 291 291 291 291
317 316 316 315 315 315 315 314 313 312 312 312 312 312 313 313 313 314 315 316 316 315 315 314 313 314 314 316 316 316 315 315 315 315 315 314 314 313 313 312 312 312 312 311 311 312 312 312 312 311 311 311 311 311 311 310 310 310 310 309 309 308 307 305 302 299 296 293 291 291 292 292 292 292 291 291 291 290 290 291 291 291 291 291 291 291
316 315 315 314 314 314 314 313 313 312 312 312 312 312 312 312 312 313 314 314 314 313 313 312 312 313 313 314 314 314 314 314 314 313 313 313 313 313 312 312 312 312 312 311 311 312 312 312 311 311 311 311 311 311 311 311 310 310 310 310 309 309 309 307 305 302 298 294 292 291 292 292 292 292 291 291 290 290 290 290 291 291 291 291 290 290
316 315 315 314 314 314 313 313 312 312 312 312 311 311 311 312 312 312 313 313 313 313 312 312 312 312 313 313 313 313 313 313 312 312 313 313 313 313 312 312 312 311 311 311 311 311 311 311 310 310 310 310 310 310 311 310 310 310 309 309 309 310 310 309 307 305 301 297 295 293 293 293 293 293 291 291 290 290 290 290 290 290 290 290 290 290
316 315 315 314 314 313 313 313 312 312 311 312 312 311 311 312 312 312 312 313 313 313 313 313 313 313 313 312 312 312 312 312 312 312 312 312 312 312 312 312 312 312 311 311 311 311 310 310 309 309 309 309 309 309 309 310 309 309 309 309 309 309 310 309 308 307 304 301 298 296 295 295 294 293 291 291 290 290 289 290 290 290 290 290 290 290
315 315 315 315 314 314 313 313 312 312 312 312 312 312 312 312 312 312 313 313 313 313 313 314 314 314 314 313 312 312 312 311 312 312 312 312 312 312 312 312 312 312 311 311 311 311 311 310 310 309 309 309 308 308 308 308 308 308 309 309 309 309 309 309 309 308 306 303 301 299 298 296 295 293 291 290 290 289 289 289 290 290 290 290 290 290
315 315 315 315 315 315 314 314 313 313 313 313 313 313 312 312 312 312 313 313 313 314 314 314 314 314 314 314 314 313 312 312 311 311 311 311 311 311 311 311 311 311 311 311 311 311 311 310 310 309 309 308 308 308 308 308 308 308 308 308 309 309 309 309 309 308 306 304 303 301 300 298 296 293 291 290 289 289 289 289 290 290 290 290 290 290
314 314 314 314 315 315 315 315 314 314 314 314 314 314 313 313 313 313 313 313 313 314 314 314 315 315 315 315 314 314 313 312 312 311 311 311 311 310 310 311 311 311 311 311 311 311 311 310 310 310 309 309 308 308 308 308 308 308 308 308 308 308 308 308 308 306 305 304 303 302 301 299 296 293 290 290 289 289 289 289 289 290 290 290 290 290
314 314 314 314 314 314 314 314 315 315 315 314 314 314 314 314 313 313 313 313 313 313 314 314 314 315 315 315 314 313 313 312 312 311 310 310 310 310 310 310 311 311 311 311 311 311 310 310 310 309 309 309 308 308 308 307 307 307 307 307 307 307 307 306 306 305 304 303 302 302 300 297 294 291 290 289 289 289 289 289 289 290 290 290 290 290
313 313 313 313 313 313 313 314 314 314 314 314 314 314 314 313 313 313 313 313 313 313 313 314 314 313 313 314 313 312 312 312 311 310 310 310 310 310 310 310 310 310 310 310 310 310 309 309 309 308 308 308 308 307 307 307 306 306 306 306 306 306 305 305 304 303 303 302 301 299 297 294 291 290 289 289 289 289 289 289 289 290 290 290 290 290
313 313 313 313 313 313 313 313 313 313 313 313 313 313 313 313 312 313 313 313 313 313 313 313 312 312 312 312 312 311 311 311 310 310 309 309 309 309 309 309 309 308 308 309 308 308 308 307 307 307 307 306 306 306 306 305 305 305 305 305 304 304 304 303 303 302 301 300 298 295 293 291 289 289 289 289 289 289 289 289 289 289 290 290 290 290
312 312 312 312 312 312 312 312 312 312 312 312 312 312 311 311 311 311 311 311 311 311 311 311 311 311 311 311 311 311 310 310 310 309 309 308 308 308 308 308 307 307 307 307 307 307 306 306 305 305 305 305 305 304 304 304 304 304 304 304 303 303 302 302 302 301 299 297 294 292 290 289 288 288 289 289 289 289 289 289 289 289 289 290 290 290
312 312 312 312 312 312 312 312 312 312 312 312 312 311 311 311 310 310 310 310 310 310 310 310 310 310 310 310 310 310 309 309 309 309 309 308 308 308 307 307 307 306 306 306 306 305 305 304 304 304 304 304 303 303 303 303 303 303 303 302 302 302 302 301 300 299 297 294 291 289 288 288 288 288 289 289 289 289 289 289 289 289 289 289 289 289
311 311 311 311 311 311 311 311 311 311 311 311 311 311 311 311 310 310 310 310 310 310 310 310 310 310 309 310 310 310 309 309 309 309 308 308 308 307 307 307 306 306 305 305 305 305 304 304 304 303 303 303 302 302 302 302 302 302 302 302 301 301 301 300 298 296 294 291 289 288 287 288 288 288 289 289 289 289 289 289 289 289 289 289 289 289
310 310 310 310 310 310 310 311 311 311 311 311 311 311 311 311 310 310 310 310 310 310 310 310 310 310 309 310 310 309 309 309 309 308 308 307 307 307 307 307 306 305 305 305 305 305 304 304 303 303 303 302 302 301 301 301 301 301 301 301 301 300 299 298 296 293 291 289 288 287 287 288 288 288 288 288 289 289 289 289 289 289 289 289 289 289
308 309 309 309 309 309 310 310 310 310 310 310 310 310 310 310 310 310 310 310 310 310 310 309 309 309 309 309 309 309 309 308 308 308 307 307 306 306 306 306 306 305 305 304 304 304 304 304 303 303 303 302 302 301 301 300 300 300 300 300 300 299 298 296 293 291 289 288 287 287 287 288 288 288 288 288 288 288 288 289 289 289 289 289 289 289
306 307 307 307 307 308 308 308 309 309 309 309 309 309 309 310 310 309 309 309 309 309 309 308 308 308 308 309 308 308 308 307 307 307 307 306 305 305 306 306 306 305 304 304 304 304 304 304 304 303 303 302 302 301 301 300 300 300 300 300 299 298 296 294 291 289 288 287 287 287 287 288 288 288 288 288 288 288 288 288 288 289 289 289 289 289
305 305 305 305 306 306 306 307 307 307 307 308 308 308 308 308 308 308 308 308 308 308 307 307 307 307 307 307 307 307 307 307 306 306 306 305 304 304 305 305 305 305 304 304 303 303 303 304 304 304 303 303 302 302 301 300 300 300 300 299 298 297 295 292 290 288 287 287 287 287 287 288 288 288 288 288 288 288 288 288 288 288 289 289 289 289
304 304 304 304 304 305 305 305 305 305 306 306 306 306 306 306 307 307 307 307 307 306 306 306 306 306 306 306 306 306 306 306 306 305 305 304 304 304 304 305 305 304 304 303 303 302 303 303 304 304 303 303 302 302 301 301 300 300 299 298 297 295 293 290 289 287 287 287 287 287 287 287 288 288 288 288 288 288 288 288 288 288 288 289 289 289
303 303 303 303 303 303 303 304 304 304 304 304 304 305 305 305 305 305 305 306 306 305 305 305 305 304 305 305 305 305 305 305 305 304 304 303 303 303 304 304 304 303 303 303 302 302 301 302 303 304 303 303 302 302 301 301 301 300 299 298 296 293 291 289 288 287 287 287 287 287 287 287 287 288 288 288 288 288 288 288 288 288 288 289 289 289
302 302 302 302 302 302 302 302 303 303 303 303 303 303 303 303 304 304 304 304 304 304 304 304 304 304 304 304 303 303 303 304 303 303 303 302 302 302 302 303 303 302 302 302 302 301 300 301 302 303 303 303 302 302 301 301 301 300 299 297 295 293 290 289 287 287 287 287 287 287 287 287 287 287 288 288 288 288 288 288 288 288 288 288 288 288
302 302 301 301 301 301 302 302 302 302 302 302 302 302 302 302 303 303 303 303 303 303 303 303 303 303 303 303 303 303 302 303 302 302 302 302 301 301 301 302 302 301 301 301 301 301 300 300 300 301 302 302 302 301 301 301 300 300 299 297 295 292 290 288 288 287 287 287 287 287 287 287 287 287 287 288 288 288 288 288 288 288 288 288 288 288
301 301 301 301 301 301 301 301 301 301 301 301 301 301 302 302 302 302 302 302 302 302 302 302 302 302 302 303 303 303 302 302 302 302 301 301 300 300 300 301 301 301 300 300 300 300 300 299 300 300 300 301 301 301 301 300 300 300 298 296 294 291 289 288 287 287 287 287 287 287 287 287 287 287 287 288 288 288 288 288 288 288 288 288 288 288
301 301 301 301 301 301 301 301 301 301 301 301 301 301 301 301 301 302 302 302 302 302 302 302 302 302 302 302 302 302 302 301 301 301 301 300 300 299 300 300 300 300 300 300 299 299 299 299 299 299 299 299 300 300 300 300 300 299 298 296 293 291 289 288 287 287 287 287 287 287 287 287 287 287 287 287 288 288 288 288 288 288 288 288 288 288
301 300 301 300 300 300 300 300 301 301 301 301 301 301 301 301 301 301 301 301 301 301 301 301 301 301 301 301 301 301 301 300 300 300 300 300 300 300 299 299 299 299 300 299 299 299 299 299 298 298 298 298 299 299 299 299 299 298 297 295 293 290 289 288 287 287 287 287 287 287 287 287 287 287 287 287 287 288 288 288 288 288 288 288 288 288
300 300 300 300 300 300 300 300 300 300 300 300 301 301 301 301 301 301 301 301 301 301 301 301 301 301 301 301 301 300 300 300 300 300 300 300 300 300 299 299 299 299 299 299 299 299 299 298 297 297 297 297 297 298 298 298 297 297 295 294 292 290 288 287 287 287 287 287 287 287 287 287 287 287 287 287 287 287 288 288 288 288 288 288 288 288
299 299 299 299 299 299 299 299 299 300 300 300 300 300 300 300 300 300 300 300 300 300 300 300 300 300 300 300 300 300 300 300 300 300 300 299 299 299 299 299 299 299 299 299 298 298 298 298 297 297 296 296 296 296 295 295 295 294 293 292 290 289 288 287 287 287 287 287 287 287 287 287 287 287 287 287 287 287 287 288 288 288 288 288 287 288
298 298 298 298 298 298 298 298 298 298 299 299 299 299 299 299 299 299 299 299 299 299 299 299 299 299 299 299 299 299 299 299 299 299 299 299 299 298 298 298 298 297 297 298 298 297 297 297 296 296 295 294 294 293 292 292 291 291 290 289 289 288 288 287 287 287 287 287 287 287 287 287 287 287 287 287 287 287 288 288 288 287 287 287 287 287
297 297 297 297 297 297 297 297 297 297 297 297 297 298 298 298 298 298 298 298 298 298 298 298 298 298 298 298 298 298 298 298 298 298 298 297 297 297 297 296 296 296 296 296 296 296 296 296 295 294 293 292 291 291 290 289 288 288 287 287 287 287 287 287 287 287 287 287 287 287 287 287 287 287 287 287 287 287 287 287 287 287 287 287 288 288
297 297 297 296 296 296 296 296 296 296 296 296 296 296 296 297 297 296 296 296 296 296 297 297 297 297 297 296 297 297 297 297 297 296 296 296 295 295 294 294 294 294 295 295 295 294 294 294 293 292 291 290 289 289 288 287 287 286 286 286 286 286 286 286 286 286 286 286 286 286 287 287 287 287 287 288 288 288 288 288 288 288 288 288 288 288
296 296 296 296 295 295 295 295 296 296 296 296 295 295 295 295 295 295 295 295 295 295 295 296 296 295 295 295 295 295 295 295 295 295 295 294 293 293 292 292 292 292 293 294 293 293 292 292 291 290 289 288 288 287 287 286 286 286 286 286 286 286 286 286 286 286 286 286 286 287 287 287 288 288 288 288 288 288 288 289 289 289 289 289 289 289
295 295 295 294 294 294 294 294 294 295 294 294 294 294 294 294 294 294 293 293 294 294 294 294 294 294 294 294 294 294 294 294 293 293 293 292 291 291 290 290 290 290 291 292 292 291 290 290 289 288 287 287 286 286 286 286 286 286 286 287 287 287 287 287 287 287 287 287 288 288 288 289 289 289 289 289 289 289 289 289 289 289 289 289 288 288
293 293 293 293 293 293 293 293 293 293 293 293 292 292 292 292 292 292 292 292 293 293 293 293 293 293 293 293 293 293 293 292 292 291 291 290 289 289 289 289 289 289 290 290 290 290 289 288 288 287 287 286 286 286 286 286 286 287 287 288 288 289 289 289 289 289 289 289 289 290 290 290 290 290 290 290 290 290 290 289 289 289 288 288 288 288
292 292 292 292 292 291 291 291 291 291 291 291 291 291 291 291 291 291 291 291 291 292 292 292 292 292 292 291 292 292 291 291 290 290 290 289 289 288 288 288 288 289 289 289 289 289 288 288 288 287 287 287 287 287 287 288 288 288 289 289 290 290 290 290 290 291 291 291 291 291 291 291 291 291 290 290 290 290 289 289 289 288 288 288 287 287
291 291 291 291 291 291 291 291 291 290 290 290 290 290 290 290 290 290 290 290 291 291 291 291 291 290 290 290 290 290 290 289 289 289 289 289 289 289 289 288 289 289 289 289 289 289 289 289 289 288 289 289 289 289 289 289 290 290 290 291 291 291 291 291 291 291 291 291 291 291 290 290 290 290 290 290 290 289 289 288 288 288 287 287 287 287
291 291 290 290 290 290 290 290 290 290 290 290 290 290 290 290 289 290 290 290 290 290 290 290 289 289 289 288 288 288 288 288 288 288 288 289 289 289 289 289 289 289 289 289 289 289 290 290 290 290 290 290 290 291 291 291 291 291 291 291 291 291 291 291 291 290 290 290 290 289 289 289 289 289 289 289 289 288 288 288 288 287 287 287 287 287
290 290 290 290 290 290 290 290 290 289 289 290 290 290 290 290 290 290 289 289 289 289 289 289 289 288 288 288 288 288 288 288 288 288 288 288 289 289 289 289 289 289 290 290 289 290 290 290 290 290 290 290 291 291 291 291 290 290 290 290 290 290 290 290 289 289 289 289 289 288 288 288 288 288 288 287 287 287 287 287 287 287 287 287 287 287
290 289 289 289 289 289 289 289 289 289 289 289 289 289 289 289 289 290 289 289 289 289 289 289 289 289 288 288 288 288 288 288 288 288 288 288 288 289 289 289 289 289 289 289 289 289 289 289 289 289 289 289 289 289 289 289 289 289 289 289 288 288 288 288 288 288 288 287 287 287 287 287 287 287 287 287 287 287 287 287 287 287 287 286 286 286
289 289 289 289 289 289 289 289 288 288 288 288 288 288 289 289 289 289 289 289 289 289 289 289 289 289 289 289 289 289 288 288 288 288 288 288 288 288 288 288 288 288 289 289 289 289 289 289 289 289 289 289 288 288 288 288 288 288 288 288 288 288 288 287 287 287 286 286 286 286 286 286 286 286 286 286 286 286 286 287 287 287 286 286 286 286
Wind_Speed
35 35 34 34 34 35 36 35 33 30 29 28 28 27 25 24 22 21 21 22 23 24 25 25 25 24 24 26 30 35 40 43 46 49 49 49 48 46 44 41 37 32 27 24 22 22 22 20 19 18 17 16 16 15 14 14 13 12 12 10 9 8 8 8 8 8 8 9 9 10 10 10 10 11 11 11 10 10 9 9 9 9 9 8 8 8
36 36 35 35 36 36 36 34 31 28 27 26 26 25 24 23 21 20 20 19 20 20 21 20 20 20 22 26 31 36 41 45 47 49 49 47 45 41 37 33 28 24 21 21 21 21 20 19 18 16 16 15 15 15 14 14 14 13 12 11 10 9 9 9 9 9 9 9 10 10 10 11 11 11 12 11 11 10 9 9 9 9 9 9 9 9
37 36 36 37 37 36 34 32 29 27 25 25 24 24 23 22 21 20 19 19 18 18 18 16 16 17 21 27 33 38 42 45 48 48 47 44 40 34 29 24 20 19 18 19 20 20 20 19 17 16 16 15 15 15 15 14 14 14 13 12 11 10 10 10 10 10 10 10 10 11 11 11 12 12 12 12 11 10 9 9 9 9 9 9 9 9
38 38 37 37 37 36 34 32 30 28 27 25 25 24 23 22 21 20 20 19 18 17 16 15 15 18 23 29 34 38 41 44 45 45 43 39 33 27 22 19 18 18 18 19 20 20 19 19 17 16 16 16 16 15 15 15 15 14 14 13 12 11 11 11 11 11 11 11 11 11 11 12 12 13 12 12 11 10 9 9 9 9 10 10 10 9
40 40 39 38 37 37 36 35 33 32 31 29 28 26 25 24 22 21 21 20 19 18 18 18 18 21 25 30 34 35 37 39 40 39 36 32 26 22 19 18 17 17 17 18 18 18 18 18 18 17 17 17 16 16 16 16 15 15 14 14 13 12 11 11 11 12 12 11 11 11 12 12 13 13 12 11 10 10 9 9 9 10 10 10 10 10
40 40 40 40 39 38 38 38 37 36 35 34 33 31 29 26 24 22 22 21 21 21 21 22 23 25 28 31 33 33 33 35 35 33 29 25 21 19 18 17 17 16 15 15 15 16 16 17 17 18 18 18 17 17 17 17 17 16 15 14 13 13 12 12 12 12 12 12 12 12 12 13 13 13 12 11 10 10 10 10 10 10 10 10 10 10
40 39 39 38 39 39 39 39 39 39 38 38 37 35 33 30 26 24 23 23 24 24 25 27 28 29 31 33 33 33 32 33 32 29 24 21 19 18 18 18 17 16 15 14 14 13 14 14 15 16 17 18 18 18 18 19 18 17 16 15 14 14 13 13 13 12 12 12 12 12 13 13 13 13 12 11 11 10 10 10 10 10 10 10 10 10
38 37 37 36 37 37 38 39 39 40 40 39 38 37 35 32 29 27 26 26 26 27 28 30 31 33 34 35 34 34 33 33 31 27 23 20 19 19 19 19 19 18 17 16 15 14 14 14 15 16 16 17 18 19 19 20 19 19 17 16 15 15 15 14 13 13 13 13 13 13 13 13 13 13 12 12 11 11 11 10 10 10 10 10 10 10
37 36 36 36 35 35 36 37 38 39 39 39 38 37 36 34 32 30 29 29 29 29 30 32 34 35 36 35 35 35 35 33 30 26 22 21 20 21 21 21 21 20 19 18 17 16 16 16 16 16 16 17 17 18 19 20 20 19 18 17 17 16 16 15 14 13 13 13 13 13 13 13 13 13 13 12 12 11 11 11 10 10 10 10 10 10
37 37 36 36 35 34 34 35 36 36 36 36 36 36 35 35 34 34 33 33 33 32 33 35 36 36 36 36 35 36 36 34 30 26 22 21 21 21 21 21 20 20 19 19 18 17 17 16 16 16 16 16 17 17 18 19 19 19 19 18 18 18 17 16 15 14 14 14 14 13 13 14 14 14 13 13 13 12 12 11 11 10 10 10 10 10
36 35 35 34 32 32 32 33 34 35 35 35 34 34 34 35 35 36 37 37 37 37 37 39 39 38 39 39 38 38 38 35 30 26 23 21 21 20 19 19 18 18 18 18 17 16 15 14 14 14 14 15 15 16 17 18 19 19 19 19 19 18 17 16 15 15 15 14 14 13 14 14 15 15 15 14 13 13 12 12 11 11 11 11 11 11
32 31 31 31 30 30 30 32 33 33 34 34 33 33 34 35 36 36 38 40 41 41 41 42 42 42 43 42 41 39 37 33 28 25 22 21 20 19 17 16 16 16 16 15 15 14 13 12 12 12 12 13 13 14 15 16 17 18 18 19 19 19 18 16 15 15 15 15 14 14 14 14 15 16 16 15 14 14 13 12 12 11 11 11 11 11
26 26 26 27 27 28 29 30 32 32 33 33 34 34 35 35 36 37 38 40 42 42 43 43 43 42 42 42 39 35 31 27 24 22 21 20 19 17 16 15 15 14 14 13 12 11 10 10 10 10 11 11 12 12 13 14 15 16 17 18 19 19 18 17 16 15 15 15 15 14 14 15 16 17 17 16 15 14 13 13 12 12 12 12 12 12
21 22 22 23 25 25 27 29 31 32 33 33 33 34 34 35 35 36 38 40 41 41 41 40 38 37 37 36 33 29 25 22 20 19 19 19 18 16 15 14 14 13 12 11 10 10 10 11 12 12 13 13 13 14 14 14 14 15 16 17 18 19 18 18 17 17 16 16 15 15 15 15 16 18 18 18 17 15 14 14 13 13 13 13 13 13
18 18 19 19 20 22 24 26 29 31 33 33 33 33 34 34 35 36 37 39 39 39 38 35 34 32 31 30 28 25 21 18 17 16 16 16 16 16 15 15 14 13 12 12 11 12 13 14 15 16 17 18 18 18 18 18 17 17 17 18 19 19 19 18 18 18 17 17 16 16 16 16 17 18 19 19 18 17 15 14 14 14 14 14 13 13
16 15 15 14 14 15 18 21 25 29 32 32 32 33 33 34 34 35 36 37 38 37 36 33 30 29 28 28 26 24 20 17 14 13 13 14 14 15 15 15 15 14 14 13 13 14 15 16 17 18 19 20 21 22 22 22 21 20 20 20 20 20 20 19 19 19 19 19 18 18 17 17 18 19 20 21 20 18 16 15 15 14 14 14 14 14
14 13 11 10 9 9 11 13 19 25 29 30 30 31 31 32 32 33 34 36 36 36 35 34 31 29 28 27 26 24 20 16 14 13 13 13 14 15 15 16 17 16 16 16 16 16 16 17 17 17 17 18 19 21 22 23 23 23 22 22 22 22 21 20 20 20 21 20 20 19 18 18 18 20 22 22 21 19 17 16 15 15 15 15 14 14
13 12 10 9 8 8 8 9 12 17 22 25 27 28 29 30 30 31 32 33 34 34 34 35 34 32 31 29 28 26 22 18 15 14 13 13 14 15 16 17 18 19 19 19 19 19 18 18 18 18 18 18 18 19 20 21 22 23 24 24 23 23 23 22 22 22 22 22 21 20 19 19 19 20 22 23 22 19 17 16 15 15 15 15 15 15
13 12 11 10 9 9 8 8 9 11 14 17 19 22 25 27 28 30 30 31 32 33 33 34 34 33 32 30 29 28 25 21 17 15 15 15 16 17 17 18 19 20 21 22 22 22 22 21 21 21 20 20 19 19 20 21 22 23 24 24 24 24 24 24 24 24 23 23 22 21 20 19 19 21 23 23 22 19 17 16 16 16 16 15 15 15
15 14 14 13 13 12 11 10 10 10 10 11 12 15 18 21 24 26 28 28 29 30 31 32 32 32 32 31 29 28 26 24 21 19 18 18 19 19 19 19 20 22 23 24 25 25 25 24 24 24 23 23 23 22 22 22 23 23 24 25 25 25 26 25 25 25 24 23 22 20 19 19 19 21 23 23 22 19 18 17 16 16 16 16 16 16
17 16 16 16 16 15 13 12 11 11 11 11 11 12 13 15 17 19 21 23 24 25 26 28 29 30 30 30 29 28 27 25 23 22 22 21 21 22 22 22 22 23 25 26 26 27 27 27 26 26 26 26 25 25 25 24 24 25 25 26 26 26 26 26 25 25 24 23 21 19 19 19 20 22 23 23 21 19 18 17 17 17 17 17 17 17
17 17 17 17 17 16 14 13 11 11 11 11 11 12 11 12 13 14 15 16 17 19 21 23 25 26 26 26 26 26 26 25 25 24 23 23 24 25 25 25 25 25 26 26 27 28 28 28 27 27 27 27 27 26 26 26 26 26 26 26 26 26 26 26 25 25 23 22 20 19 18 19 21 22 23 22 21 20 19 18 18 18 17 17 18 18
18 17 17 17 17 17 16 14 13 12 11 11 11 12 12 12 12 12 12 13 14 16 18 19 20 21 22 23 24 24 24 25 25 24 24 24 25 26 26 26 26 26 26 27 27 27 27 27 27 27 27 27 27 27 26 26 26 26 26 26 26 26 26 26 25 24 23 21 19 19 19 20 22 23 23 22 22 20 20 19 19 18 18 18 18 18
18 18 17 17 17 17 16 15 15 14 13 12 12 12 13 13 14 13 13 14 14 15 16 16 18 20 21 22 23 23 23 23 23 23 23 24 25 25 25 26 26 26 26 26 26 25 26 26 26 26 26 26 26 26 26 26 26 26 26 26 26 26 26 26 25 24 22 20 19 20 21 22 23 23 23 23 22 21 20 20 19 19 19 19 19 19
18 18 18 18 17 17 17 17 17 16 16 15 15 15 15 15 15 15 16 16 15 15 15 16 18 19 20 21 22 22 22 22 22 22 22 23 23 24 24 24 24 25 25 25 24 24 24 25 25 25 25 25 25 25 26 26 26 26 26 26 26 26 26 25 24 23 21 20 20 21 22 23 23 23 23 23 22 22 21 20 20 20 20 19 19 19
20 19 19 19 19 19 18 18 18 19 19 19 19 18 18 18 17 17 17 18 18 17 17 17 18 19 19 20 21 21 21 21 21 21 21 22 22 23 23 23 23 23 23 23 23 23 24 24 24 24 25 25 25 25 25 25 25 26 26 26 26 26 26 25 23 22 21 20 21 22 23 23 23 23 23 23 22 22 21 21 21 20 20 20 20 20
21 21 21 21 20 20 20 20 20 21 21 21 22 21 21 20 20 19 20 20 20 20 19 19 20 20 21 21 21 22 22 22 22 22 21 22 22 23 23 22 22 22 23 22 22 22 23 23 24 24 24 25 25 25 24 24 25 25 26 26 26 26 25 24 22 21 21 21 22 22 23 23 23 23 23 23 23 22 22 22 21 21 21 21 20 20
22 21 21 21 21 21 21 21 21 22 22 22 23 23 23 22 22 21 22 22 22 21 22 21 21 21 22 23 23 23 23 23 24 23 22 22 24 24 23 22 22 23 23 22 22 22 23 24 24 24 24 25 25 25 25 25 25 25 26 26 26 26 25 23 22 21 21 22 22 23 23 23 23 23 23 23 23 23 22 22 22 21 21 21 21 21
21 21 21 21 20 20 20 20 21 21 22 22 23 23 24 23 23 22 22 22 22 22 22 22 22 22 23 24 24 24 24 25 25 24 23 24 25 25 24 23 23 23 23 22 22 23 24 25 24 24 24 25 25 25 25 25 25 25 26 26 26 25 24 23 22 22 22 22 23 23 23 23 23 23 23 24 23 23 23 22 22 22 22 22 21 21
21 21 20 20 20 20 19 19 20 20 21 21 21 22 22 23 23 23 22 22 22 22 21 21 21 22 23 23 23 24 25 26 25 24 24 25 26 25 24 24 24 24 23 22 23 24 26 26 25 25 25 25 25 25 26 26 26 26 26 26 25 25 24 23 23 23 23 23 23 23 23 23 23 24 24 24 24 23 23 23 22 22 22 22 21 21
19 19 19 19 19 19 19 19 19 19 20 20 20 21 21 21 22 22 22 22 22 21 20 20 20 21 22 22 23 24 25 25 24 24 24 25 25 25 24 24 25 25 23 23 23 25 26 26 26 26 25 25 25 26 26 26 26 26 26 26 25 25 24 24 23 24 24 24 24 23 24 24 24 24 24 24 24 24 23 23 23 23 22 22 22 21
17 18 18 18 18 18 18 18 18 19 19 20 20 20 20 20 21 21 21 21 21 21 20 20 20 21 21 22 22 23 23 22 22 22 22 23 24 24 23 24 25 25 24 23 24 25 25 26 27 27 26 25 25 26 26 27 27 27 26 26 26 25 25 24 24 24 24 24 24 24 24 24 24 24 24 24 24 24 23 23 23 23 23 22 22 22
16 16 17 17 17 17 17 17 17 18 19 19 20 20 20 20 20 20 20 20 20 20 20 20 20 20 21 21 21 22 22 20 19 19 20 21 22 22 22 23 24 24 24 24 25 25 26 27 28 27 26 25 25 25 26 27 27 27 27 26 26 25 25 24 24 24 24 24 24 24 24 24 24 24 24 24 24 24 23 23 23 23 23 22 22 22
16 16 16 16 16 16 16 16 16 17 18 18 19 19 19 19 19 19 20 20 20 20 20 20 20 20 20 20 21 21 21 20 19 19 20 20 21 21 21 23 24 24 24 24 25 26 27 28 28 27 26 24 24 24 25 26 27 27 27 26 26 25 25 25 25 25 24 24 24 24 24 24 24 24 24 24 24 23 23 23 23 23 23 22 22 22
16 16 17 16 16 16 16 16 16 17 17 18 18 18 18 18 18 18 18 19 19 19 20 20 20 20 20 20 20 20 20 19 19 19 20 21 21 21 22 23 24 24 23 24 24 25 25 26 27 26 26 24 23 23 24 26 27 27 27 26 26 25 25 25 25 25 24 24 24 24 24 24 24 24 24 24 23 23 23 23 23 23 23 23 22 21
17 17 17 17 17 17 17 17 17 17 17 18 17 17 17 17 17 17 18 18 19 19 20 20 21 21 21 21 21 20 20 19 19 20 21 22 22 22 22 23 24 24 23 24 24 24 24 25 25 25 25 24 23 23 23 25 26 26 27 26 26 25 25 25 25 24 24 24 23 23 23 23 23 23 23 23 23 23 23 22 22 22 23 23 22 21
17 18 18 18 18 18 18 18 18 18 18 18 17 17 16 16 16 17 17 18 19 19 20 20 20 20 21 21 21 21 21 20 21 21 22 23 23 24 24 24 24 24 24 23 23 23 23 23 24 24 24 23 23 22 22 23 25 26 26 26 26 25 25 25 24 24 24 24 23 23 22 23 23 23 23 23 23 23 23 22 22 22 22 22 22 21
17 17 18 18 18 18 18 18 18 18 18 18 17 17 17 16 16 17 17 18 19 20 20 20 20 20 20 21 21 21 21 22 22 22 23 24 24 24 24 24 24 24 24 23 22 21 21 21 22 22 22 22 21 21 20 21 23 24 25 25 25 25 25 24 24 24 24 23 23 22 22 23 23 23 23 23 23 23 22 22 22 21 21 21 21 20
16 17 18 18 18 18 19 19 18 18 18 17 17 17 17 17 17 17 18 18 19 20 20 20 20 20 20 20 21 21 22 22 23 23 23 24 25 25 24 24 23 23 23 23 22 21 21 21 21 20 19 19 19 18 18 18 19 21 22 23 24 24 24 23 23 23 23 23 22 22 22 22 23 23 23 23 22 22 22 21 21 20 20 20 19 19
16 16 17 17 17 17 17 17 17 17 17 17 17 17 17 17 17 17 18 19 19 20 20 20 20 20 20 20 21 21 22 22 23 23 23 24 25 25 24 23 22 21 21 21 22 21 21 20 20 18 17 16 16 16 15 15 16 17 18 20 22 23 23 22 22 22 22 22 22 22 22 22 22 22 22 22 21 21 21 20 19 19 18 18 18 19
15 15 15 15 15 16 15 15 15 16 16 16 16 16 16 16 16 17 17 18 19 19 19 20 20 20 20 20 20 21 21 21 22 22 23 23 23 24 23 21 20 19 19 20 21 21 20 19 18 16 15 15 15 15 14 14 13 14 15 17 18 19 19 20 21 21 21 21 21 21 21 21 21 21 20 20 19 19 18 18 18 18 18 18 18 19
13 13 13 13 13 13 14 14 14 15 15 15 15 15 15 15 15 15 16 16 17 17 18 18 18 18 18 19 19 20 20 20 21 21 21 21 21 20 19 18 18 18 18 19 20 19 19 18 17 15 14 14 15 15 15 14 13 13 13 13 13 14 15 17 18 18 18 19 19 18 18 18 18 18 18 17 17 17 17 17 17 18 18 19 19 19
12 12 12 12 12 13 13 14 14 15 15 15 15 14 14 15 15 15 15 15 16 16 16 16 17 17 17 17 18 18 19 19 19 19 19 18 17 16 15 14 15 16 17 18 18 18 17 17 16 14 13 13 14 15 16 15 14 13 13 12 11 11 13 15 15 15 16 16 16 16 16 16 16 16 15 16 16 16 17 17 18 19 19 20 20 21
12 12 13 13 13 13 13 14 14 15 15 14 14 14 15 15 15 15 15 15 15 15 15 15 16 16 16 16 16 17 17 17 17 17 17 16 15 13 12 12 13 14 15 16 16 16 15 15 14 13 12 12 13 14 14 14 14 14 13 12 12 12 13 13 13 14 14 15 15 15 15 15 15 15 16 16 17 17 18 18 19 20 20 21 21 22
13 13 13 13 13 13 13 14 14 15 15 15 15 15 15 15 15 15 14 14 14 14 14 14 14 14 14 15 15 16 16 15 15 15 15 14 13 12 12 11 11 12 13 14 14 14 14 13 13 12 12 12 13 13 13 13 14 14 14 13 13 13 14 14 13 14 15 16 16 16 16 16 17 17 17 18 18 18 19 19 20 21 21 22 22 23
13 13 13 13 14 14 14 14 14 15 15 15 15 15 15 14 14 14 14 14 13 14 14 14 13 13 13 14 14 15 15 15 14 14 14 14 13 12 12 11 11 11 11 12 12 13 13 13 13 13 12 13 13 14 14 14 15 15 15 15 15 15 16 15 15 16 17 17 17 17 17 17 18 18 19 19 19 19 20 20 21 22 23 23 23 23
13 14 14 14 14 14 14 14 14 14 14 14 15 15 15 14 13 13 13 13 13 13 13 13 13 13 13 13 14 14 14 14 14 14 14 14 13 13 12 12 12 11 11 11 11 11 12 13 14 14 14 14 14 15 15 15 16 16 17 16 16 17 17 16 16 16 17 17 18 17 17 18 18 19 19 19 20 20 21 22 22 23 24 24 24 23
14 14 14 14 14 14 14 14 14 14 14 14 14 15 14 13 13 13 12 13 13 13 13 13 13 13 13 13 13 14 14 14 13 13 13 14 13 13 13 13 12 12 12 12 12 12 12 12 13 13 14 14 15 15 15 15 16 16 17 16 16 16 16 16 15 16 16 17 17 18 18 19 19 20 20 21 21 22 23 23 24 24 24 24 24 23
14 14 14 14 14 14 14 14 14 14 14 14 14 14 14 13 13 12 12 12 12 12 12 13 13 13 13 13 13 14 14 14 13 13 13 13 13 13 12 12 12 12 12 12 12 12 12 13 13 13 13 13 14 14 14 14 14 15 15 15 15 16 16 16 16 16 16 17 18 18 19 20 21 21 22 23 24 24 24 24 25 25 24 24 24 23
14 14 14 14 14 14 14 14 14 14 14 14 14 14 13 13 13 12 13 13 12 12 12 12 13 13 13 13 13 13 13 13 13 13 13 13 13 12 12 11 11 11 11 12 12 12 12 13 13 13 13 13 13 13 13 13 13 14 14 14 15 15 16 16 16 17 17 18 19 20 20 21 22 23 23 24 25 25 25 25 25 24 24 24 23 23
15 14 14 14 14 14 14 14 14 14 14 14 14 14 13 13 13 13 13 13 13 13 13 13 13 13 13 13 13 13 13 13 13 13 13 12 12 12 12 11 11 11 11 11 11 11 12 12 13 13 13 13 13 13 14 14 14 14 14 15 15 15 16 17 17 18 18 19 20 21 21 22 23 24 24 24 25 25 26 25 25 24 23 22 22 22
Wind_Direction
226 226 227 229 231 231 230 229 229 231 234 237 239 239 238 237 237 237 238 238 237 236 234 235 236 239 240 238 234 230 224 215 205 197 193 191 189 188 188 187 187 187 186 186 187 189 192 193 194 195 199 204 209 214 218 221 223 225 228 231 235 240 246 250 254 256 257 258 259 261 263 265 264 261 257 253 251 251 251 251 251 251 251 253 254 256
226 225 224 226 228 229 229 229 230 231 234 236 238 239 238 238 238 239 240 241 240 238 236 235 238 240 241 235 229 224 219 211 204 198 193 190 188 186 185 185 185 185 185 186 189 191 192 192 193 194 199 205 212 217 221 224 227 230 232 236 239 244 249 254 257 258 259 258 258 260 262 263 261 258 253 249 247 246 247 247 247 247 248 249 251 254
227 225 224 224 225 226 227 229 230 232 234 236 238 239 239 240 241 242 242 243 242 240 238 238 239 240 235 226 219 214 210 206 201 197 193 190 187 186 187 188 190 190 190 191 192 192 192 191 191 194 199 206 212 218 222 226 230 233 236 240 244 248 252 256 258 259 259 258 258 259 261 261 258 254 249 246 244 243 243 244 244 244 246 247 249 251
229 228 226 226 225 226 227 230 232 234 236 238 240 241 242 243 243 243 243 243 242 240 238 238 239 237 228 217 209 204 201 198 196 193 190 188 188 189 193 196 198 200 200 200 198 196 193 191 191 194 200 207 213 218 223 227 231 235 239 243 246 249 252 255 257 258 258 258 258 259 259 257 254 251 247 244 242 241 242 243 242 243 244 246 247 248
229 228 228 228 228 230 232 234 236 239 241 243 244 245 246 245 245 244 244 242 240 237 233 232 232 230 223 212 203 197 195 193 191 189 187 187 188 192 195 200 204 208 210 210 207 203 198 195 194 197 201 207 213 218 223 227 232 236 240 244 247 249 251 253 254 256 257 258 259 259 257 256 253 250 246 244 242 241 242 242 242 243 244 245 246 247
226 225 226 227 229 232 235 238 240 243 245 247 248 248 247 246 245 243 239 237 233 229 226 223 222 220 217 210 202 196 192 190 188 186 185 186 188 191 194 198 203 208 212 214 214 211 207 203 201 201 204 208 213 217 222 226 230 234 238 241 244 247 248 250 251 253 255 257 258 257 256 256 253 251 247 244 243 243 243 242 242 243 245 246 247 246
222 222 222 224 228 232 236 239 242 244 247 248 248 247 246 244 243 239 233 230 226 221 218 216 214 212 211 207 203 197 192 188 186 184 184 186 189 192 195 198 202 205 208 210 212 214 214 212 211 210 211 213 216 219 222 224 227 229 232 235 239 242 244 246 248 251 253 255 256 256 256 256 255 252 248 245 244 243 243 242 242 243 246 247 248 248
221 222 223 225 228 231 235 238 241 244 245 245 244 242 240 239 238 235 231 226 221 216 213 210 208 206 205 204 202 198 192 187 185 185 186 190 194 197 199 202 203 203 203 205 208 211 214 217 219 220 220 221 223 224 225 225 225 226 226 228 231 235 238 240 243 246 250 252 253 255 256 257 256 253 249 246 245 244 243 242 242 243 245 247 248 248
226 227 229 230 231 232 233 235 237 238 239 239 238 236 234 232 230 228 225 221 217 214 211 208 204 202 202 203 202 199 193 189 188 189 192 196 200 203 204 205 205 204 203 203 204 208 212 217 221 224 227 228 229 230 229 229 228 228 227 227 228 230 232 233 236 240 245 248 250 252 255 257 256 253 250 247 245 244 243 242 242 243 245 246 247 248
233 233 233 233 232 231 230 230 230 230 229 229 228 228 228 226 225 222 219 215 213 212 210 208 205 202 201 203 204 201 195 192 192 195 199 203 205 207 207 207 207 206 206 206 207 210 214 219 224 228 231 233 234 234 233 233 232 232 231 229 229 229 229 229 231 235 240 244 247 249 254 256 256 253 250 248 245 244 242 242 243 243 244 245 246 247
231 232 230 228 227 226 225 224 223 222 220 218 217 218 220 221 220 218 214 211 209 208 207 206 205 203 200 199 201 200 196 193 194 198 202 205 207 208 209 210 210 210 211 212 214 216 220 225 230 234 236 238 239 239 239 238 237 236 234 231 230 229 229 228 229 233 238 242 245 247 251 254 255 254 251 248 245 242 241 242 243 244 245 245 246 247
224 223 224 223 221 219 218 217 217 215 213 210 207 206 207 211 214 214 212 209 205 201 199 199 200 199 196 193 193 194 194 193 193 197 200 204 207 208 209 211 212 214 216 219 221 225 229 234 238 242 244 245 247 247 247 245 244 241 237 233 231 229 228 228 229 232 238 242 244 246 249 253 254 254 251 247 243 240 239 240 242 244 245 245 246 247
214 214 214 216 216 216 214 212 210 208 207 205 204 202 202 204 206 207 207 206 202 197 193 190 189 189 189 187 186 187 189 191 193 196 200 204 207 209 210 212 213 215 217 220 225 230 235 241 246 250 252 255 257 259 259 258 255 251 246 240 236 232 230 228 228 231 236 240 243 244 247 250 253 253 251 247 242 239 237 238 240 242 244 245 246 247
199 202 205 208 211 213 213 211 208 205 204 204 205 206 205 204 203 202 201 199 196 193 189 184 181 180 180 179 180 182 186 190 194 199 203 207 209 211 212 212 212 213 215 220 226 234 241 247 252 256 259 261 264 267 269 269 268 265 259 253 248 242 237 232 229 230 233 237 240 242 244 248 251 252 251 247 242 238 235 236 238 241 243 244 245 247
186 189 194 200 205 209 211 212 210 207 206 205 205 205 205 203 201 199 198 195 192 190 185 181 178 176 176 176 178 181 185 191 198 205 210 214 216 217 216 215 213 214 216 221 229 238 245 250 254 256 258 260 262 264 266 267 269 268 267 264 260 255 249 241 235 231 231 233 235 238 240 243 247 250 250 247 242 237 234 234 237 240 242 243 245 246
181 181 183 188 195 203 209 213 212 210 208 207 205 205 204 202 201 200 198 196 194 190 185 182 180 180 181 181 182 184 187 192 198 205 213 220 224 225 224 222 220 220 223 228 233 240 246 249 251 253 254 256 257 259 260 261 261 263 264 265 265 263 258 252 243 237 233 231 232 233 235 238 242 246 248 246 242 237 233 233 235 239 242 243 245 247
179 177 175 174 176 185 197 208 213 213 212 211 210 209 207 206 205 204 202 200 198 195 191 189 190 194 196 195 194 195 195 196 197 200 206 216 223 227 229 230 229 228 231 234 238 242 245 246 247 247 248 249 251 253 255 255 256 257 258 261 262 263 262 257 251 243 237 232 230 231 232 233 237 242 245 245 241 237 233 233 236 239 242 244 246 249
181 178 176 175 174 175 180 192 204 210 213 214 215 215 214 213 212 210 208 206 205 203 201 200 202 206 210 212 212 212 213 212 208 206 208 215 222 226 229 233 235 236 237 239 241 242 242 242 242 241 241 242 244 247 249 250 252 253 254 256 258 260 260 258 253 247 240 234 231 230 230 231 234 239 243 243 241 237 235 235 238 241 244 246 248 251
188 185 185 185 186 187 189 192 196 201 207 213 217 219 219 218 217 217 215 214 213 212 212 213 215 219 224 227 228 229 232 233 232 228 225 226 229 231 231 233 236 239 241 242 243 243 241 240 239 238 237 237 238 240 242 244 246 248 249 252 254 255 256 254 251 246 240 234 231 230 230 230 233 237 241 242 241 238 236 237 240 243 245 248 250 253
198 196 193 193 194 197 201 203 203 203 205 210 217 222 224 224 223 223 222 222 221 221 222 223 226 230 236 241 243 244 247 249 248 245 242 239 239 239 238 236 237 240 243 244 245 245 243 241 239 237 236 236 236 236 238 240 242 244 246 248 249 250 250 249 246 242 236 232 230 229 229 229 232 236 240 242 241 239 238 239 242 244 247 249 252 255
207 204 202 200 200 202 207 210 211 211 211 212 217 223 229 231 230 230 229 229 229 229 230 231 234 237 241 247 251 253 255 256 255 253 253 250 248 247 246 244 243 243 245 246 247 247 246 244 242 241 239 238 238 238 239 240 241 243 244 246 246 246 245 243 240 236 232 229 228 227 227 228 231 236 239 241 241 240 240 241 243 245 247 250 253 255
210 208 208 206 206 207 210 213 217 219 218 219 221 225 230 235 237 238 240 240 239 238 237 237 238 240 243 247 251 254 258 259 258 258 258 256 254 254 253 252 250 249 249 250 250 250 249 249 247 246 245 244 244 243 243 243 244 244 244 244 244 242 240 237 234 231 229 227 225 225 226 228 232 236 239 240 240 240 240 241 243 245 247 250 252 254
210 209 209 208 208 210 211 214 218 221 224 225 228 231 234 238 242 246 249 250 250 249 247 245 245 246 247 248 250 253 256 257 259 259 259 258 257 257 257 256 255 254 254 254 253 253 253 253 252 251 250 250 249 249 248 248 247 246 245 243 241 239 236 233 230 228 226 225 224 224 226 229 233 236 238 239 240 240 240 241 243 245 247 249 252 254
212 211 210 210 211 211 212 214 217 222 225 227 229 231 234 235 237 239 242 244 247 250 253 254 252 250 249 250 250 251 252 255 257 257 257 257 258 258 257 257 256 256 256 256 256 256 256 256 255 255 254 253 253 252 251 250 249 247 244 242 239 236 233 231 229 227 225 224 224 225 228 231 234 236 238 239 240 240 240 241 243 245 247 249 251 254
218 216 215 214 214 214 215 216 219 222 225 227 228 231 232 233 234 234 235 236 239 243 246 248 248 248 249 250 251 251 251 254 255 255 255 257 258 258 257 256 256 256 257 257 257 257 257 257 257 256 256 255 254 253 252 250 249 246 243 240 238 235 232 230 228 226 225 224 225 228 230 233 234 236 238 239 240 241 241 242 244 245 247 249 251 254
222 220 219 219 219 220 220 220 221 223 226 227 229 230 232 232 232 234 235 236 238 239 241 243 245 246 248 250 251 251 251 252 253 254 254 255 257 257 255 256 256 256 257 257 257 257 258 258 257 257 256 255 254 252 251 250 248 245 242 239 236 233 231 229 227 226 225 226 228 231 233 234 235 237 238 239 240 241 242 243 244 246 248 250 252 254
224 223 222 222 223 223 223 224 224 225 227 228 229 231 231 230 231 233 235 236 237 238 238 239 240 242 243 245 246 248 248 249 250 250 252 252 254 254 255 255 255 255 256 257 257 258 258 258 257 256 255 254 253 251 250 248 247 244 241 238 235 232 229 228 226 226 227 229 231 234 235 236 236 237 239 240 241 242 243 244 245 247 248 250 252 254
225 224 224 223 224 224 224 225 226 226 227 228 229 230 230 230 230 231 233 235 236 236 236 236 237 238 239 240 241 243 243 245 246 246 248 249 250 251 253 253 253 254 254 255 257 257 257 257 256 255 254 253 251 249 248 246 245 243 241 237 234 231 228 227 226 227 229 232 234 235 236 237 237 238 239 240 241 242 243 244 246 247 249 251 253 254
227 226 225 225 224 223 224 224 225 226 226 226 227 228 229 229 229 230 232 233 234 234 235 235 235 236 237 239 239 240 240 241 242 243 245 246 247 248 250 251 252 252 252 254 256 256 256 256 255 254 253 251 249 247 245 244 243 241 239 236 233 230 228 227 227 229 231 233 235 236 237 237 238 238 240 241 242 243 244 245 247 248 250 251 254 256
229 228 227 226 225 225 224 224 224 224 224 224 224 225 227 228 228 228 230 231 232 233 234 235 235 236 237 239 240 240 241 241 241 242 244 245 246 248 249 251 251 252 252 253 255 256 256 255 254 253 252 250 248 245 243 242 241 239 237 234 231 229 227 227 228 230 232 234 236 236 237 237 238 239 240 241 242 243 245 246 248 249 251 253 255 257
228 228 227 227 227 226 225 225 225 225 225 225 224 224 226 227 228 228 229 230 231 232 233 234 235 236 238 239 241 243 244 243 242 243 245 246 248 250 251 252 253 253 253 253 253 255 257 257 254 251 250 249 247 244 242 241 239 238 235 232 230 228 228 228 230 232 234 235 236 237 237 237 238 239 240 241 242 243 245 247 249 251 253 255 257 259
228 228 227 227 227 226 225 225 225 226 226 227 226 226 226 227 228 229 230 230 231 232 233 234 235 236 238 240 242 245 247 247 246 246 248 249 251 252 252 253 254 254 254 252 252 252 254 257 255 252 250 248 246 244 242 240 238 236 234 231 229 229 229 230 231 233 235 236 236 237 237 238 238 239 240 241 242 244 245 247 250 252 254 256 259 261
227 227 227 226 225 223 222 222 223 225 227 228 228 228 227 227 228 229 230 231 233 234 234 235 235 236 238 240 242 244 247 247 247 248 249 250 251 252 251 251 252 253 252 251 251 251 251 253 254 253 251 248 246 243 241 239 238 236 233 231 229 229 230 231 233 235 236 236 237 237 238 238 239 239 240 242 243 244 246 248 251 253 256 258 260 262
223 225 226 226 224 222 220 220 221 223 225 227 227 227 226 227 228 229 230 231 233 234 236 237 237 238 239 240 242 244 245 246 246 246 247 249 250 250 249 248 249 249 250 249 249 250 250 251 252 252 252 249 246 242 240 238 236 235 233 231 230 230 231 232 234 236 237 237 237 238 238 239 239 240 241 242 244 245 247 250 252 255 258 260 261 262
221 222 223 224 224 223 222 221 221 223 224 226 226 226 226 226 227 228 229 230 232 234 236 238 239 240 241 242 243 244 245 245 245 245 245 246 247 247 246 246 246 247 247 247 247 248 250 251 251 251 251 249 246 242 238 236 234 233 232 231 230 230 231 233 235 236 237 238 238 239 239 240 240 241 242 244 245 247 249 251 254 257 259 261 262 262
222 222 222 223 224 224 224 224 224 225 227 228 229 228 227 227 228 229 230 231 232 234 235 237 240 241 243 243 244 243 244 244 243 242 242 243 244 244 244 244 244 244 244 245 245 246 248 249 250 250 249 248 246 242 237 235 233 232 230 230 230 230 232 233 235 236 238 238 239 239 240 240 241 243 244 245 247 249 251 253 255 258 260 262 262 262
224 224 224 224 225 225 226 226 227 228 230 232 233 232 231 230 230 231 231 233 234 235 236 238 239 241 243 244 245 244 244 243 243 242 242 242 243 244 243 243 243 243 243 243 244 244 244 247 248 249 248 247 245 242 238 234 232 230 229 229 229 230 231 232 234 236 238 238 238 239 239 240 242 243 245 246 248 251 253 254 256 258 260 261 262 262
227 226 226 226 226 227 227 227 228 230 231 233 234 235 234 233 233 232 233 234 235 236 237 238 239 241 242 243 244 244 244 244 244 244 244 245 245 245 244 244 244 244 243 243 242 241 241 243 244 246 246 245 244 243 240 236 232 231 229 229 229 230 231 232 234 236 237 238 238 238 239 240 241 243 245 247 249 251 253 255 256 257 258 260 262 262
228 227 227 227 227 227 227 227 228 229 230 232 234 235 235 234 234 233 233 234 235 236 237 238 239 240 240 241 242 242 243 243 243 244 245 246 247 247 246 245 245 244 244 242 240 238 237 237 239 241 242 243 244 243 241 238 234 232 231 230 230 230 231 233 234 236 237 238 238 238 239 240 241 243 246 248 250 252 254 256 256 256 257 258 261 263
227 226 226 225 226 226 226 226 226 227 228 229 231 231 232 232 232 232 232 233 233 234 235 236 237 238 238 238 239 240 241 241 242 243 244 245 247 247 247 245 244 242 241 239 237 234 232 230 230 232 235 238 241 241 240 237 234 232 232 231 232 232 232 233 235 237 237 238 238 239 239 241 242 245 247 249 251 253 255 256 256 256 256 257 260 263
221 221 220 220 221 221 220 219 219 220 222 223 224 225 226 226 226 227 228 229 230 232 233 234 235 235 236 236 237 238 239 240 240 241 241 242 243 244 245 243 241 239 236 232 230 228 226 223 221 221 223 227 231 233 232 230 228 228 230 233 235 235 234 234 235 237 237 238 238 239 241 242 244 246 248 250 252 254 255 257 257 257 258 259 261 263
211 210 209 209 209 209 208 208 209 210 213 214 215 216 217 218 219 220 221 223 226 228 230 231 232 232 233 233 235 236 237 238 238 237 237 237 237 237 238 237 236 233 230 226 223 220 218 215 214 212 213 217 222 224 223 222 222 223 225 228 231 232 233 233 233 235 236 237 238 239 241 243 244 247 249 252 255 256 257 258 259 260 261 263 265 266
194 193 192 193 193 195 197 198 199 201 203 205 205 206 208 210 212 213 216 219 221 224 226 228 228 228 228 229 230 232 233 234 233 231 229 228 227 226 226 226 226 226 224 219 215 211 209 206 205 205 205 208 215 220 221 221 220 219 219 219 218 219 225 227 227 228 231 234 235 237 239 242 245 248 251 254 257 259 259 260 261 263 264 265 266 267
181 181 181 182 183 186 188 190 193 195 197 198 199 200 202 206 209 210 212 215 218 220 222 223 224 224 223 222 223 224 224 226 225 222 219 216 215 215 214 214 215 216 217 213 208 204 202 200 198 195 193 199 207 214 218 218 218 217 217 216 215 215 218 220 221 222 226 230 232 234 236 240 243 247 249 251 254 256 258 260 261 262 264 264 265 266
176 176 176 177 179 180 182 185 189 191 192 193 194 195 198 203 206 207 208 211 213 215 216 218 218 217 215 215 216 215 215 214 213 210 206 204 205 206 207 206 206 207 207 206 204 201 196 194 192 191 192 197 203 208 211 213 215 216 218 220 221 221 221 220 219 221 225 229 231 233 235 237 241 244 247 249 250 252 254 257 259 261 262 263 263 264
175 175 176 178 178 179 181 185 188 190 190 191 192 194 197 201 203 204 205 206 208 208 210 212 211 207 205 206 207 207 205 203 202 200 197 195 195 196 198 200 200 199 198 198 199 199 198 194 192 192 195 200 205 208 209 211 213 216 219 221 223 225 226 225 224 224 226 229 232 234 236 238 241 245 247 249 251 252 253 255 258 259 261 261 261 262
178 178 179 181 182 183 185 188 190 191 191 191 193 195 197 199 200 200 201 202 203 203 204 206 203 200 198 199 200 199 197 196 195 195 193 193 192 191 191 193 194 193 192 191 192 194 196 197 197 197 200 204 207 209 211 212 214 215 217 220 222 224 226 226 226 227 229 232 235 237 240 242 245 248 250 251 253 254 255 256 257 258 259 260 260 261
182 183 183 185 186 187 189 191 192 192 192 193 195 197 198 199 198 197 198 199 200 200 200 199 196 194 192 193 194 195 194 193 193 194 193 192 192 192 192 191 191 191 192 192 192 194 196 199 202 204 207 210 211 213 214 215 216 218 220 221 223 225 227 228 229 231 233 236 239 242 245 247 250 252 253 254 255 256 256 256 257 258 259 260 261 262
185 186 187 188 188 189 191 193 194 194 194 195 197 198 200 201 199 197 196 197 198 199 198 196 194 193 191 190 192 194 194 194 194 195 195 194 194 194 195 194 194 194 195 196 197 198 201 204 207 210 214 218 220 222 222 223 224 225 227 228 229 231 233 235 236 238 240 243 245 247 249 251 253 254 255 256 256 256 257 257 257 258 259 261 262 264
187 188 189 189 190 191 192 194 194 194 195 196 197 198 200 201 200 198 197 197 198 198 198 197 196 195 194 193 194 195 195 195 196 197 197 197 197 197 197 197 197 198 200 202 203 205 208 211 213 214 216 220 224 228 231 232 233 234 236 236 237 238 241 243 244 246 247 249 251 252 253 254 255 255 256 257 257 258 258 259 259 260 261 263 264 266
189 189 190 190 191 192 193 194 194 194 194 195 197 198 198 199 199 199 199 199 199 199 199 200 198 197 197 197 198 199 199 199 198 199 200 201 200 200 199 199 199 201 204 206 209 211 214 219 222 223 223 222 224 228 232 234 235 237 239 240 241 242 245 248 250 251 252 253 254 255 255 256 256 257 257 258 259 260 260 261 262 263 264 265 266 267